This demonstration page uses our WeatherBlox Daily Observations layout. Learn more.

Left ArrowRight Arrow

38.83388, -104.82136

Hourly Observations for January 6, 2021

Temp ( °F °C ) Dew Point ( °F °C ) Humidity (%) Winds ( mph kmh ) Pressure ( in mb ) Visibility ( mi km ) Precip ( " mm )
12:58 am 00:58 Clear 26 -3.5 16 -8.7 68 68 N 6 9 29.83 1010 10 16 0.00 0.00
1:58 am 01:58 Clear 26 -3.5 15 -9.5 64 64 WNW 9 15 29.82 1010 10 16 0.00 0.00
2:58 am 02:58 Clear 26 -3.1 11 -11.4 53 53 WNW 6 9 29.85 1011 10 16 0.00 0.00
3:58 am 03:58 Clear 24 -4.6 13 -10.7 63 63 Calm 29.88 1012 10 16 0.00 0.00
4:58 am 04:58 Clear 23 -4.9 11 -11.6 60 60 Calm 29.89 1012 10 16 0.00 0.00
5:58 am 05:58 Clear 22 -5.3 11 -11.9 60 60 Calm 29.93 1014 10 16 0.00 0.00
6:58 am 06:58 Clear 23 -5 8 -13.5 52 52 NNW 3 6 29.95 1014 10 16 0.00 0.00
7:58 am 07:58 Sunny 24 -4.2 11 -11.7 56 56 Calm 29.98 1015 10 16 0.00 0.00
8:58 am 08:58 Sunny 34 0.9 11 -11.5 39 39 Calm 29.95 1014 10 16 0.00 0.00
10:58 am 10:58 Sunny 36 2.2 15 -9.7 41 41 SE 10 17 29.93 1013 10 16 0.00 0.00
11:58 am 11:58 Sunny 36 2.3 14 -9.8 41 41 ESE 10 17 29.88 1012 10 16 0.00 0.00
12:58 pm 12:58 Sunny 36 2.2 13 -10.5 39 39 SE 10 17 29.88 1012 10 16 0.00 0.00
1:58 pm 13:58 Sunny 35 1.9 11 -11.7 36 36 SSE 12 19 29.87 1012 10 16 0.00 0.00
2:56 pm 14:56 Sunny 34 1.1 10 -12.5 36 36 SSE 7 11 29.87 1012 10 16 0.00 0.00
3:56 pm 15:56 Sunny 33 0.3 8 -13.6 35 35 S 8 13 29.90 1013 10 16 0.00 0.00
4:56 pm 16:56 Clear 32 0.1 7 -13.7 35 35 SSW 7 11 29.92 1013 10 16 0.00 0.00
5:56 pm 17:56 Clear 29 -1.7 10 -12.1 45 45 Calm 29.96 1015 10 16 0.00 0.00
6:56 pm 18:56 Clear 29 -1.8 10 -12.1 46 46 NW 5 7 29.95 1014 10 16 0.00 0.00
7:56 pm 19:56 Clear 28 -2.2 10 -12.2 47 47 WNW 5 7 29.96 1015 10 16 0.00 0.00
8:56 pm 20:56 Clear 28 -2 9 -12.8 44 44 NW 5 7 29.91 1013 10 16 0.00 0.00
9:56 pm 21:56 Clear 28 -2 8 -13.1 43 43 Calm 29.91 1013 10 16 0.00 0.00
10:58 pm 22:58 Clear 29 -1.7 8 -13.2 42 42 Calm 29.89 1012 10 16 0.00 0.00
11:58 pm 23:58 Clear 30 -0.9 9 -13 40 40 Calm 29.87 1011 10 16 0.00 0.00

Powered by AerisWeather